Home > Weather > Saint John > Past weeks

Flag for Canada Past Weather in Saint John, New Brunswick, Canada — Yesterday and Last 2 Weeks

Now
64 °F

Overcast.


Feels Like: 64 °F
Forecast: 61 / 72 °F
Wind: 2 mph from North

Location: Saint John

Current Time: Jul 28, 2016 at 11:17:04 PM

Latest Report: Jul 28, 2016 at 10:00 PM


Visibility: 15 mi

Pressure: 29.92 "Hg

Humidity: 94%

Dew Point: 63 °F

Location of Saint JohnLocation

Past Weather in Saint John — Graph

°F

Saint John Temperature Yesterday

Maximum temperature yesterday: 82 °F (at 12:00 PM)
Minimum temperature yesterday: 57 °F (at 6:00 AM)
Average temperature yesterday: 72 °F

High & Low Weather Summary for the Past Weeks

 TemperatureHumidityPressure
High86 °F (Jul 24, 4:00 PM)100% (Jul 13, 10:00 PM)30.17 "Hg (Jul 13, 10:00 PM)
Low48 °F (Jul 21, 6:00 AM)38% (Jul 19, 5:00 PM)29.65 "Hg (Jul 22, 7:00 PM)
Average65 °F85%29.89 "Hg
* Reported Jul 13 10:00 PM — Jul 28 10:00 PM, Saint John, Weather by CustomWeather, © 2016

Note: Actual official high and low records may vary slightly from our data, if they occured in-between our weather recording intervals... More about our weather records

Advertising

Saint John Weather History for the Previous 24 Hours

Scroll right to see more
 ConditionsComfort  
Time TempWeatherWind HumidityBarometerVisibility
10:00 PM
Thu, Jul 28
64 °FOvercast.2 mph94%29.92 "Hg15 mi
9:00 PM66 °FMostly cloudy.5 mph88%29.91 "Hg15 mi
8:00 PM68 °FBroken clouds.3 mph78%29.92 "Hg15 mi
7:00 PM68 °FBroken clouds.8 mph78%29.90 "Hg15 mi
6:00 PM70 °FBroken clouds.12 mph78%29.90 "Hg15 mi
5:00 PM72 °FBroken clouds.17 mph73%29.89 "Hg15 mi
4:00 PM75 °FBroken clouds.17 mph65%29.88 "Hg15 mi
3:00 PM77 °FBroken clouds.16 mph61%29.91 "Hg15 mi
2:00 PM77 °FBroken clouds.17 mph65%29.91 "Hg15 mi
1:00 PM75 °FMore clouds than sun.15 mph69%29.90 "Hg15 mi
12:00 PM75 °FMore clouds than sun.12 mph69%29.91 "Hg15 mi
11:00 AM70 °FMore clouds than sun.10 mph83%29.91 "Hg15 mi
10:00 AM70 °FMore clouds than sun.8 mph78%29.91 "Hg15 mi
9:00 AM64 °FLow clouds.7 mph100%29.92 "Hg10 mi
8:00 AM61 °FFog.6 mph100%29.91 "Hg1 mi
7:00 AM61 °FFog.7 mph100%29.90 "Hg0 mi
6:00 AM59 °FFog.6 mph100%29.89 "Hg1 mi
5:00 AM59 °FFog.6 mph100%29.89 "Hg3 mi
4:00 AM59 °FPassing clouds.5 mph100%29.88 "Hg15 mi
3:00 AM59 °FPassing clouds.2 mph100%29.88 "Hg15 mi
2:00 AM61 °FPassing clouds.7 mph100%29.88 "Hg15 mi
1:00 AM63 °FClear.2 mph94%29.89 "Hg15 mi
12:00 AM64 °FPassing clouds.2 mph88%29.88 "Hg15 mi
11:00 PM
Wed, Jul 27
66 °FPassing clouds.7 mph88%29.87 "Hg15 mi
Weather by CustomWeather, © 2016

See weather overviewHow to use our weather pages